Weather History for Lexington, KY

Change the Weather History Date:

Friday, March 8, 2013

  Actual Average Record
Temperature  
Mean Temperature 38 °F 43 °F  
Max Temperature 47 °F 53 °F 78 °F (1974)
Min Temperature 29 °F 34 °F 3 °F (1960)
Degree Days  
Heating Degree Days 27 22  
Month to date heating degree days 253 185  
Since 1 July heating degree days 3761 3756  
Cooling Degree Days 0 0  
Month to date cooling degree days 0 0  
Year to date cooling degree days 0 0  
Moisture  
Dew Point 27 °F    
Average Humidity 64    
Maximum Humidity 78    
Minimum Humidity 49    
Precipitation  
Precipitation 0.00 in 0.13 in 1.73 in (1964)
Month to date precipitation 0.87 0.99  
Year to date precipitation 6.85 7.39  
Snow  
Snow 0.00 in 0.10 in 4.00 in (2008)
Month to date snowfall 2.5 0.5  
Since 1 July snowfall 11.0 11.8  
Snow Depth 0.00 in    
Sea Level Pressure  
Sea Level Pressure 30.41 in    
Wind  
Wind Speed 7 mph (NE)    
Max Wind Speed 14 mph    
Max Gust Speed 17 mph    
Visibility 10 miles    
Events      
T = Trace of Precipitation, MM = Missing Value Source: NWS Daily Summary

Daily Weather History Graph

Daily Weather History Graph

Search for Another Location

Airport:

Trip Planner

Search our weather history database for the weather conditions in past years. The results will help you decide how hot, cold, wet, or windy it might be!

Date:

Astronomy

Mar. 08, 2013 Rise Set
Actual Time 6:59 AM EST 6:39 PM EST
Civil Twilight 6:33 AM EST 7:05 PM EST
Nautical Twilight 6:02 AM EST 7:35 PM EST
Astronomical Twilight 5:32 AM EST 8:06 PM EST
Moon 4:40 AM EST (3/8) 3:35 PM EST (3/8)
Length of Visible Light 12h 31m
Length of Day
11h 39m
Waning Crescent, 12% of the Moon is Illuminated
Mar 8
Waning Crescent
Mar 11
New
Mar 19
First Quarter
Mar 27
Full
Apr 3
Last Quarter

Hourly Weather History & Observations

Time (EST) Temp. Windchill Dew Point Humidity Pressure Visibility Wind Dir Wind Speed Gust Speed Precip Events Conditions
12:54 AM 33.1 °F 28.7 °F 25.0 °F 72% 30.38 in 10.0 mi North 4.6 mph - N/A   Overcast
1:54 AM 34.0 °F - 25.0 °F 70% 30.39 in 10.0 mi Calm Calm - N/A   Overcast
2:54 AM 34.0 °F 31.0 °F 25.0 °F 70% 30.40 in 10.0 mi North 3.5 mph - N/A   Overcast
3:54 AM 34.0 °F - 24.1 °F 67% 30.38 in 10.0 mi Calm Calm - N/A   Mostly Cloudy
4:54 AM 30.9 °F - 24.1 °F 76% 30.40 in 10.0 mi Calm Calm - N/A   Clear
5:54 AM 30.0 °F 25.2 °F 24.1 °F 79% 30.43 in 10.0 mi NNW 4.6 mph - N/A   Mostly Cloudy
6:54 AM 30.0 °F 23.2 °F 24.1 °F 79% 30.45 in 9.0 mi North 6.9 mph - N/A   Scattered Clouds
7:54 AM 30.9 °F 24.3 °F 25.0 °F 79% 30.45 in 8.0 mi NE 6.9 mph - N/A   Clear
8:54 AM 35.1 °F 27.9 °F 24.1 °F 64% 30.47 in 10.0 mi NE 9.2 mph - N/A   Clear
9:54 AM 37.9 °F 30.5 °F 27.0 °F 65% 30.46 in 10.0 mi NE 11.5 mph - N/A   Clear
10:54 AM 39.0 °F 32.8 °F 28.0 °F 65% 30.45 in 10.0 mi East 9.2 mph - N/A   Partly Cloudy
11:54 AM 41.0 °F 34.3 °F 30.0 °F 65% 30.44 in 10.0 mi NE 11.5 mph - N/A   Partly Cloudy
12:54 PM 43.0 °F 38.8 °F 28.9 °F 58% 30.45 in 10.0 mi ENE 6.9 mph - N/A   Partly Cloudy
1:54 PM 45.0 °F 42.6 °F 28.9 °F 53% 30.43 in 10.0 mi North 4.6 mph - N/A   Partly Cloudy
2:54 PM 46.0 °F 43.1 °F 30.0 °F 54% 30.41 in 10.0 mi North 5.8 mph - N/A   Clear
3:54 PM 46.0 °F 42.5 °F 28.9 °F 51% 30.38 in 10.0 mi ENE 6.9 mph - N/A   Clear
4:54 PM 46.0 °F 41.0 °F 30.0 °F 54% 30.37 in 10.0 mi NE 10.4 mph - N/A   Clear
5:54 PM 45.0 °F 41.2 °F 28.9 °F 53% 30.38 in 10.0 mi NE 6.9 mph - N/A   Clear
6:54 PM 41.0 °F 37.1 °F 27.0 °F 57% 30.38 in 10.0 mi East 5.8 mph - N/A   Clear
7:54 PM 39.0 °F 35.7 °F 27.0 °F 62% 30.40 in 10.0 mi NE 4.6 mph - N/A   Clear
8:54 PM 36.0 °F 29.0 °F 27.0 °F 70% 30.39 in 10.0 mi ENE 9.2 mph - N/A   Clear
9:54 PM 37.0 °F 31.0 °F 27.0 °F 67% 30.38 in 10.0 mi ENE 8.1 mph - N/A   Clear
10:54 PM 36.0 °F 29.6 °F 26.1 °F 67% 30.39 in 10.0 mi ENE 8.1 mph - N/A   Clear
11:54 PM 35.1 °F 26.9 °F 27.0 °F 72% 30.36 in 10.0 mi ENE 11.5 mph - N/A   Clear